Location: Banff
(51.1667°N, 115.5667°W)
Time: 21:01:14
(UTC+00:00)

Vanguard 1 Rocket - Pass Details

Date: 05 December 2020
Orbit: 655 x 4221 km, 34.3° (Epoch: 17 January)

Event Time Altitude Azimuth Distance (km) Brightness Sun altitude
Exits shadow 10:14:12 48° 173° (S) 4,447 10.5 -47.7°
Drops below altitude 10° 10:29:48 10° 117° (ESE) 5,537 11.7 -45.5°
Sets 10:33:24 0° 112° (ESE) 6,152 12.1 -45.0°
